SPTOK EPKK-EPWR

Flight info

Callsign SPTOK
Flight time N/A
Altitude 6000
Route LUMVE
Aircraft DA50/L-SBDGRY/S

Departure

Time N/A
Airport Kraków John Paul II International Airport (EPKK)

Arrival

Time 2026-05-03 20:50
Airport Copernicus Wrocław Airport (EPWR)
Time Latitude Longitude Altitude Speed Heading
2026-05-03 20:15 50.70351 18.30053 5995 ft 168 kts 300°
2026-05-03 20:15 50.71028 18.28578 5995 ft 169 kts 300°
2026-05-03 20:15 50.71716 18.27080 5995 ft 169 kts 300°
2026-05-03 20:15 50.72403 18.25583 5994 ft 168 kts 300°
2026-05-03 20:16 50.73090 18.24088 5990 ft 168 kts 300°
2026-05-03 20:16 50.73765 18.22584 5989 ft 167 kts 296°
2026-05-03 20:16 50.74304 18.20978 5989 ft 165 kts 291°
2026-05-03 20:16 50.74823 18.19357 5989 ft 165 kts 291°
2026-05-03 20:17 50.75341 18.17734 5986 ft 165 kts 291°
2026-05-03 20:17 50.75851 18.16133 5986 ft 166 kts 291°
2026-05-03 20:17 50.76392 18.14522 5986 ft 166 kts 292°
2026-05-03 20:17 50.76948 18.12921 5986 ft 167 kts 293°
2026-05-03 20:18 50.77508 18.11316 5987 ft 167 kts 293°
2026-05-03 20:18 50.78063 18.09712 5986 ft 166 kts 291°
2026-05-03 20:18 50.78590 18.08092 5980 ft 166 kts 292°
2026-05-03 20:18 50.79091 18.06448 5981 ft 166 kts 291°
2026-05-03 20:19 50.79591 18.04799 5980 ft 166 kts 291°
2026-05-03 20:19 50.80089 18.03177 5979 ft 166 kts 292°
2026-05-03 20:19 50.80629 18.01554 5981 ft 167 kts 294°
2026-05-03 20:19 50.81181 17.99941 5981 ft 167 kts 294°
2026-05-03 20:20 50.81733 17.98327 5980 ft 167 kts 294°
2026-05-03 20:20 50.82288 17.96713 5981 ft 167 kts 294°
2026-05-03 20:20 50.82845 17.95095 5980 ft 167 kts 294°
2026-05-03 20:20 50.83400 17.93482 5981 ft 167 kts 294°
2026-05-03 20:21 50.83951 17.91866 5979 ft 167 kts 294°
2026-05-03 20:21 50.84495 17.90270 5977 ft 167 kts 294°
2026-05-03 20:21 50.85041 17.88646 5979 ft 167 kts 292°
2026-05-03 20:21 50.85560 17.87001 5976 ft 167 kts 292°
2026-05-03 20:22 50.86078 17.85358 5976 ft 167 kts 291°
2026-05-03 20:22 50.86595 17.83719 5976 ft 166 kts 292°
2026-05-03 20:22 50.87112 17.82081 5977 ft 166 kts 292°
2026-05-03 20:22 50.87626 17.80443 5978 ft 166 kts 292°
2026-05-03 20:23 50.88137 17.78803 5977 ft 166 kts 291°
2026-05-03 20:23 50.88644 17.77179 5978 ft 167 kts 292°
2026-05-03 20:23 50.89164 17.75539 5972 ft 167 kts 293°
2026-05-03 20:23 50.89714 17.73918 5973 ft 167 kts 294°
2026-05-03 20:24 50.90266 17.72296 5971 ft 167 kts 294°
2026-05-03 20:24 50.90819 17.70673 5973 ft 167 kts 294°
2026-05-03 20:24 50.91388 17.69062 5973 ft 168 kts 297°
2026-05-03 20:24 50.92013 17.67493 5972 ft 169 kts 297°
2026-05-03 20:25 50.92617 17.65903 5974 ft 168 kts 297°
2026-05-03 20:25 50.93210 17.64333 5973 ft 168 kts 297°
2026-05-03 20:25 50.93811 17.62745 5972 ft 168 kts 297°
2026-05-03 20:25 50.94410 17.61157 5973 ft 168 kts 297°
2026-05-03 20:26 50.95007 17.59572 5966 ft 167 kts 297°
2026-05-03 20:26 50.95611 17.57993 5966 ft 167 kts 297°
2026-05-03 20:26 50.96213 17.56417 5966 ft 167 kts 296°
2026-05-03 20:26 50.96816 17.54843 5968 ft 167 kts 297°
2026-05-03 20:27 50.97422 17.53264 5966 ft 168 kts 297°
2026-05-03 20:27 50.98030 17.51683 5966 ft 168 kts 297°
2026-05-03 20:27 50.98628 17.50125 5966 ft 168 kts 297°
2026-05-03 20:27 50.99233 17.48546 5965 ft 167 kts 297°
2026-05-03 20:28 50.99838 17.46971 5967 ft 167 kts 297°
2026-05-03 20:28 51.00440 17.45398 5966 ft 167 kts 297°
2026-05-03 20:28 51.01042 17.43821 5961 ft 167 kts 297°
2026-05-03 20:28 51.01643 17.42244 5961 ft 167 kts 297°
2026-05-03 20:29 51.02260 17.40673 5959 ft 168 kts 297°
2026-05-03 20:29 51.02873 17.39126 5958 ft 168 kts 298°
2026-05-03 20:29 51.03495 17.37557 5958 ft 168 kts 297°
2026-05-03 20:29 51.04116 17.35994 5955 ft 167 kts 297°
2026-05-03 20:30 51.04737 17.34431 5956 ft 167 kts 298°
2026-05-03 20:30 51.05351 17.32859 5955 ft 167 kts 297°
2026-05-03 20:30 51.05953 17.31281 5954 ft 167 kts 297°
2026-05-03 20:30 51.06555 17.29698 5953 ft 167 kts 297°
2026-05-03 20:31 51.07158 17.28111 5955 ft 168 kts 297°
2026-05-03 20:31 51.07758 17.26520 5951 ft 168 kts 297°
2026-05-03 20:31 51.08346 17.24951 5949 ft 167 kts 297°
2026-05-03 20:31 51.08941 17.23367 5949 ft 167 kts 297°
2026-05-03 20:32 51.09534 17.21779 5950 ft 167 kts 296°
2026-05-03 20:32 51.10128 17.20195 5951 ft 167 kts 296°
2026-05-03 20:32 51.10723 17.18605 5950 ft 167 kts 296°
2026-05-03 20:32 51.11320 17.17014 5949 ft 167 kts 296°
2026-05-03 20:33 51.11917 17.15424 5947 ft 167 kts 297°
2026-05-03 20:33 51.12311 17.14371 5947 ft 167 kts 296°
2026-05-03 20:33 51.13100 17.12266 5946 ft 167 kts 297°
2026-05-03 20:33 51.13695 17.10680 5946 ft 167 kts 297°
2026-05-03 20:34 51.14290 17.09092 5947 ft 167 kts 296°
2026-05-03 20:34 51.14883 17.07506 5947 ft 167 kts 297°
2026-05-03 20:34 51.15477 17.05917 5947 ft 167 kts 297°
2026-05-03 20:34 51.16071 17.04327 5947 ft 167 kts 296°
2026-05-03 20:35 51.16455 17.03270 5947 ft 166 kts 293°
2026-05-03 20:35 51.16905 17.01590 5947 ft 164 kts 286°
2026-05-03 20:35 51.17413 16.99318 5946 ft 164 kts 285°
2026-05-03 20:35 51.17793 16.97603 5946 ft 164 kts 285°
2026-05-03 20:36 51.18189 16.95899 5946 ft 165 kts 289°
2026-05-03 20:36 51.18690 16.94250 5947 ft 166 kts 293°
2026-05-03 20:36 51.19227 16.92619 5947 ft 166 kts 294°
2026-05-03 20:36 51.19582 16.91539 5947 ft 166 kts 294°
2026-05-03 20:37 51.20111 16.89897 5947 ft 166 kts 292°
2026-05-03 20:37 51.20611 16.88239 5947 ft 166 kts 291°
2026-05-03 20:37 51.21104 16.86575 5943 ft 166 kts 292°
2026-05-03 20:37 51.21745 16.84358 5943 ft 166 kts 293°
2026-05-03 20:38 51.22251 16.82704 5942 ft 166 kts 294°
2026-05-03 20:38 51.22594 16.81584 5942 ft 166 kts 294°
2026-05-03 20:38 51.23096 16.79949 5941 ft 166 kts 294°
2026-05-03 20:38 51.23604 16.78296 5937 ft 166 kts 294°
2026-05-03 20:39 51.24113 16.76640 5937 ft 166 kts 294°
2026-05-03 20:39 51.24622 16.74977 5884 ft 169 kts 294°
2026-05-03 20:39 51.25110 16.73408 5701 ft 143 kts 294°
2026-05-03 20:39 51.25637 16.71749 5460 ft 111 kts 294°
2026-05-03 20:40 51.25870 16.71042 5274 ft 103 kts 294°
2026-05-03 20:40 51.26190 16.70083 5003 ft 97 kts 294°
2026-05-03 20:40 51.26510 16.69141 4685 ft 96 kts 293°
2026-05-03 20:40 51.26825 16.68207 4356 ft 94 kts 282°
2026-05-03 20:41 51.26855 16.67235 4042 ft 86 kts 250°
2026-05-03 20:41 51.26708 16.66313 3722 ft 85 kts 250°
2026-05-03 20:41 51.26535 16.65435 3408 ft 80 kts 236°
2026-05-03 20:41 51.26175 16.64656 3100 ft 99 kts 223°
2026-05-03 20:42 51.25613 16.63918 2942 ft 105 kts 214°
2026-05-03 20:42 51.24979 16.63425 2941 ft 100 kts 204°
2026-05-03 20:42 51.24336 16.63112 2938 ft 96 kts 199°
2026-05-03 20:42 51.23693 16.62883 2929 ft 93 kts 198°
2026-05-03 20:43 51.23031 16.62648 2937 ft 102 kts 198°
2026-05-03 20:43 51.22316 16.62377 2940 ft 108 kts 198°
2026-05-03 20:43 51.21567 16.62080 2940 ft 113 kts 198°
2026-05-03 20:43 51.20788 16.61768 2938 ft 117 kts 198°
2026-05-03 20:44 51.19973 16.61608 2938 ft 121 kts 183°
2026-05-03 20:44 51.19135 16.61733 2936 ft 125 kts 176°
2026-05-03 20:44 51.18379 16.62481 2935 ft 141 kts 133°
2026-05-03 20:44 51.18003 16.63979 2939 ft 147 kts 119°
2026-05-03 20:45 51.17645 16.65508 2939 ft 147 kts 120°
2026-05-03 20:45 51.17258 16.67015 2935 ft 148 kts 123°
2026-05-03 20:45 51.16831 16.68522 2886 ft 151 kts 126°
2026-05-03 20:45 51.16348 16.70018 2801 ft 153 kts 130°
2026-05-03 20:46 51.15820 16.71503 2735 ft 153 kts 128°
2026-05-03 20:46 51.15274 16.72913 2682 ft 150 kts 135°
2026-05-03 20:46 51.14695 16.74278 2626 ft 147 kts 130°
2026-05-03 20:46 51.14303 16.75731 2422 ft 128 kts 126°
2026-05-03 20:47 51.14037 16.76846 2182 ft 94 kts 130°
2026-05-03 20:47 51.13838 16.77751 2076 ft 85 kts 134°
2026-05-03 20:47 51.13554 16.78618 1937 ft 90 kts 139°
2026-05-03 20:47 51.13252 16.79517 1783 ft 94 kts 135°
2026-05-03 20:48 51.12929 16.80406 1673 ft 94 kts 139°
2026-05-03 20:48 51.12586 16.81287 1533 ft 95 kts 137°
2026-05-03 20:48 51.12257 16.82233 1367 ft 96 kts 131°
2026-05-03 20:48 51.11961 16.83182 1207 ft 98 kts 126°
2026-05-03 20:49 51.11659 16.84124 1006 ft 91 kts 124°
2026-05-03 20:49 51.11381 16.85016 768 ft 91 kts 124°
2026-05-03 20:49 51.11100 16.85891 553 ft 86 kts 122°
2026-05-03 20:49 51.10835 16.86736 431 ft 88 kts 121°
2026-05-03 20:50 51.10589 16.87555 397 ft 66 kts 121°
2026-05-03 20:50 51.10404 16.88141 401 ft 65 kts 116°
2026-05-03 20:50 51.10174 16.88892 398 ft 84 kts 116°
2026-05-03 20:50 51.09936 16.89663 399 ft 38 kts 115°
2026-05-03 20:51 51.09820 16.89730 398 ft 16 kts 205°
2026-05-03 20:51 51.09744 16.89673 398 ft 9 kts 204°
2026-05-03 20:51 51.09691 16.89630 398 ft 10 kts 216°
2026-05-03 20:51 51.09637 16.89539 398 ft 12 kts 281°
2026-05-03 20:52 51.09652 16.89415 398 ft 11 kts 279°
2026-05-03 20:52 51.09670 16.89239 398 ft 21 kts 275°
2026-05-03 20:52 51.09699 16.89000 398 ft 21 kts 279°
2026-05-03 20:52 51.09726 16.88795 398 ft 17 kts 298°
2026-05-03 20:53 51.09796 16.88653 398 ft 15 kts 312°
2026-05-03 20:53 51.09855 16.88537 398 ft 12 kts 306°
2026-05-03 20:53 51.09906 16.88441 398 ft 11 kts 308°
2026-05-03 20:53 51.09952 16.88352 398 ft 10 kts 311°
2026-05-03 20:54 51.09998 16.88264 398 ft 10 kts 310°
2026-05-03 20:54 51.09986 16.88182 398 ft 3 kts 216°
2026-05-03 20:54 51.09970 16.88202 398 ft 4 kts 61°
2026-05-03 20:55 51.09979 16.88213 398 ft 0 kts 20°